Weather History for KRNH - March, 2013

Change the Weather History Date:

Friday, March 29, 2013

  Actual Average (KMSP) Record (KMSP)
Temperature  
Mean Temperature 30 °F 39 °F  
Max Temperature 42 °F 48 °F 83 °F (1986)
Min Temperature 17 °F 29 °F -5 °F (1969)
Degree Days  
Heating Degree Days 36 26  
Month to date heating degree days 948  
Since 1 July heating degree days 6738  
Cooling Degree Days 0 0  
Month to date cooling degree days 0  
Year to date cooling degree days 0  
Moisture  
Dew Point 25 °F    
Average Humidity 73    
Maximum Humidity 93    
Minimum Humidity 57    
Precipitation  
Precipitation 0.00 in 0.07 in 0.79 in (1998)
Month to date precipitation 1.74  
Year to date precipitation 3.41  
Snow  
Snow 0.00 in 0.10 in 11.00 in (1924)
Month to date snowfall 9.9  
Since 1 July snowfall 51.6  
Snow Depth -    
Sea Level Pressure  
Sea Level Pressure 30.23 in    
Wind  
Wind Speed 3 mph (SSE)    
Max Wind Speed 12 mph    
Max Gust Speed 16 mph    
Visibility 10 miles    
Events Rain    
T = Trace of Precipitation, MM = Missing Value Source: NWS Daily Summary

Daily Weather History Graph

Daily Weather History Graph

Search for Another Location

Airport or City:

Trip Planner

Search our weather history database for the weather conditions in past years. The results will help you decide how hot, cold, wet, or windy it might be!

Date:

Astronomy

Mar. 29, 2013 Rise Set
Actual Time 6:55 AM CDT 7:34 PM CDT
Civil Twilight 6:26 AM CDT 8:04 PM CDT
Nautical Twilight 5:51 AM CDT 8:39 PM CDT
Astronomical Twilight 5:14 AM CDT 9:16 PM CDT
Moon 10:44 PM CDT (3/29) 7:57 AM CDT (3/29)
Length of Visible Light 13h 38m
Length of Day
12h 38m
Waning Gibbous, 93% of the Moon is Illuminated
Mar 29
Waning Gibbous
Apr 2
Last Quarter
Apr 10
New
Apr 18
First Quarter
Apr 25
Full

Hourly Weather History & Observations

Time (CDT) Temp. Windchill Dew Point Humidity Pressure Visibility Wind Dir Wind Speed Gust Speed Precip Events Conditions
12:15 AM 24.8 °F - 19.4 °F 80% 30.29 in 10.0 mi Calm Calm - N/A   Clear
12:35 AM 23.0 °F - 17.6 °F 80% 30.29 in 10.0 mi Calm Calm - N/A   Clear
12:55 AM 23.0 °F - 19.4 °F 86% 30.29 in 10.0 mi Calm Calm - N/A   Clear
1:15 AM 23.0 °F - 19.4 °F 86% 30.29 in 10.0 mi Calm Calm - N/A   Clear
1:35 AM 23.0 °F - 19.4 °F 86% 30.29 in 10.0 mi Calm Calm - N/A   Clear
1:55 AM 21.2 °F - 19.4 °F 93% 30.29 in 10.0 mi Calm Calm - N/A   Clear
2:15 AM 19.4 °F - 17.6 °F 93% 30.29 in 10.0 mi Calm Calm - N/A   Clear
2:35 AM 21.2 °F - 17.6 °F 86% 30.29 in 10.0 mi Calm Calm - N/A   Clear
2:55 AM 21.2 °F 16.4 °F 17.6 °F 86% 30.29 in 10.0 mi SE 3.5 mph - N/A   Clear
3:15 AM 19.4 °F - 17.6 °F 93% 30.29 in 10.0 mi Calm Calm - N/A   Clear
3:35 AM 21.2 °F - 17.6 °F 86% 30.29 in 10.0 mi Calm Calm - N/A   Clear
3:55 AM 19.4 °F - 15.8 °F 86% 30.29 in 10.0 mi Calm Calm - N/A   Clear
4:15 AM 19.4 °F - 15.8 °F 86% 30.28 in 10.0 mi Calm Calm - N/A   Clear
4:35 AM 19.4 °F - 15.8 °F 86% 30.28 in 10.0 mi Calm Calm - N/A   Clear
4:55 AM 17.6 °F - 14.0 °F 86% 30.28 in 10.0 mi Calm Calm - N/A   Clear
5:15 AM 19.4 °F - 15.8 °F 86% 30.28 in 10.0 mi Calm Calm - N/A   Mostly Cloudy
5:35 AM 19.4 °F - 15.8 °F 86% 30.28 in 10.0 mi Calm Calm - N/A   Overcast
5:55 AM 21.2 °F 14.9 °F 17.6 °F 86% 30.28 in 10.0 mi East 4.6 mph - N/A   Overcast
6:15 AM 23.0 °F - 19.4 °F 86% 30.27 in 10.0 mi Calm Calm - N/A   Overcast
6:35 AM 23.0 °F 15.8 °F 19.4 °F 86% 30.28 in 10.0 mi SW 5.8 mph - N/A   Overcast
6:55 AM 24.8 °F 20.5 °F 19.4 °F 80% 30.29 in 10.0 mi ESE 3.5 mph - N/A   Mostly Cloudy
7:15 AM 26.6 °F 20.0 °F 19.4 °F 74% 30.28 in 10.0 mi East 5.8 mph - N/A   Scattered Clouds
7:35 AM 24.8 °F 19.1 °F 19.4 °F 80% 30.29 in 10.0 mi East 4.6 mph - N/A   Mostly Cloudy
7:55 AM 26.6 °F 19.1 °F 19.4 °F 74% 30.28 in 10.0 mi East 6.9 mph - N/A   Scattered Clouds
8:15 AM 26.6 °F 21.2 °F 19.4 °F 74% 30.29 in 10.0 mi ESE 4.6 mph - N/A   Scattered Clouds
8:35 AM 28.4 °F 23.3 °F 21.2 °F 74% 30.29 in 10.0 mi ESE 4.6 mph - N/A   Scattered Clouds
8:55 AM 28.4 °F 23.3 °F 21.2 °F 74% 30.29 in 10.0 mi SE 4.6 mph - N/A   Mostly Cloudy
9:15 AM 30.2 °F 25.4 °F 23.0 °F 75% 30.29 in 10.0 mi SE 4.6 mph - N/A   Overcast
9:35 AM 32.0 °F 27.5 °F 23.0 °F 69% 30.29 in 10.0 mi ESE 4.6 mph - N/A   Mostly Cloudy
9:55 AM 33.8 °F 29.6 °F 23.0 °F 65% 30.29 in 10.0 mi SSE 4.6 mph - N/A   Overcast
10:15 AM 35.6 °F 30.7 °F 23.0 °F 60% 30.29 in 10.0 mi SE 5.8 mph - N/A   Overcast
10:35 AM 35.6 °F 29.2 °F 23.0 °F 60% 30.28 in 10.0 mi SE 8.1 mph - N/A   Overcast
10:55 AM 35.6 °F 29.9 °F 24.8 °F 65% 30.29 in 10.0 mi SE 6.9 mph - N/A   Overcast
11:15 AM 37.4 °F 32.8 °F 24.8 °F 60% 30.28 in 10.0 mi SE 5.8 mph - N/A   Overcast
11:55 AM 37.4 °F 30.3 °F 24.8 °F 60% 30.27 in 10.0 mi SSE 10.4 mph - N/A   Overcast
12:15 PM 39.2 °F 33.6 °F 26.6 °F 61% 30.26 in 10.0 mi SSE 8.1 mph - N/A   Overcast
12:35 PM 39.2 °F 32.0 °F 26.6 °F 61% 30.26 in 10.0 mi South 11.5 mph - N/A   Overcast
12:55 PM 39.2 °F 34.2 °F 26.6 °F 61% 30.25 in 10.0 mi SSE 6.9 mph - N/A   Overcast
1:15 PM 41.0 °F 35.8 °F 26.6 °F 57% 30.25 in 10.0 mi South 8.1 mph - N/A   Overcast
1:35 PM 41.0 °F 36.4 °F 26.6 °F 57% 30.24 in 10.0 mi SSE 6.9 mph - N/A   Overcast
1:55 PM 41.0 °F 35.8 °F 28.4 °F 61% 30.24 in 10.0 mi South 8.1 mph - N/A   Overcast
2:15 PM 39.2 °F 32.0 °F 28.4 °F 65% 30.23 in 10.0 mi South 11.5 mph - N/A   Overcast
2:35 PM 39.2 °F 33.0 °F 28.4 °F 65% 30.23 in 10.0 mi SSE 9.2 mph - N/A   Light Drizzle
2:55 PM 41.0 °F 36.4 °F 28.4 °F 61% 30.22 in 10.0 mi SSE 6.9 mph - N/A   Mostly Cloudy
3:15 PM 41.0 °F 35.2 °F 28.4 °F 61% 30.21 in 10.0 mi SSE 9.2 mph - N/A   Mostly Cloudy
3:35 PM 41.0 °F 35.8 °F 30.2 °F 65% 30.21 in 10.0 mi South 8.1 mph - N/A   Overcast
3:55 PM 41.0 °F 34.7 °F 28.4 °F 61% 30.20 in 10.0 mi SSE 10.4 mph - N/A   Overcast
4:15 PM 42.8 °F 36.6 °F 30.2 °F 61% 30.19 in 10.0 mi South 11.5 mph - N/A   Mostly Cloudy
4:35 PM 42.8 °F 37.0 °F 28.4 °F 57% 30.19 in 10.0 mi South 10.4 mph 16.1 mph N/A   Mostly Cloudy
4:55 PM 42.8 °F 38.0 °F 28.4 °F 57% 30.18 in 10.0 mi SSE 8.1 mph - N/A   Mostly Cloudy
5:15 PM 42.8 °F 38.0 °F 28.4 °F 57% 30.18 in 10.0 mi SSE 8.1 mph - N/A   Clear
5:35 PM 42.8 °F 38.6 °F 28.4 °F 57% 30.17 in 10.0 mi SSE 6.9 mph - N/A   Scattered Clouds
5:55 PM 42.8 °F 38.6 °F 28.4 °F 57% 30.17 in 10.0 mi SSE 6.9 mph - N/A   Mostly Cloudy
6:15 PM 42.8 °F 38.6 °F 30.2 °F 61% 30.17 in 10.0 mi SSE 6.9 mph - N/A   Overcast
6:35 PM 42.8 °F 38.6 °F 30.2 °F 61% 30.16 in 10.0 mi SSE 6.9 mph - N/A   Overcast
6:55 PM 41.0 °F 36.4 °F 30.2 °F 65% 30.16 in 10.0 mi SSE 6.9 mph - N/A   Mostly Cloudy
7:15 PM 41.0 °F 37.1 °F 30.2 °F 65% 30.15 in 10.0 mi SSE 5.8 mph - N/A   Mostly Cloudy
7:35 PM 41.0 °F 38.0 °F 30.2 °F 65% 30.15 in 10.0 mi SE 4.6 mph - N/A   Scattered Clouds
7:55 PM 37.4 °F 33.8 °F 30.2 °F 75% 30.14 in 10.0 mi SE 4.6 mph - N/A   Clear
8:15 PM 37.4 °F 33.8 °F 30.2 °F 75% 30.14 in 10.0 mi SE 4.6 mph - N/A   Clear
8:35 PM 37.4 °F 33.8 °F 30.2 °F 75% 30.14 in 10.0 mi SSE 4.6 mph - N/A   Clear
8:55 PM 37.4 °F 32.8 °F 30.2 °F 75% 30.14 in 10.0 mi SSE 5.8 mph - N/A   Scattered Clouds
9:15 PM 37.4 °F 32.1 °F 30.2 °F 75% 30.14 in 10.0 mi SSE 6.9 mph - N/A   Scattered Clouds
9:35 PM 37.4 °F 33.8 °F 30.2 °F 75% 30.14 in 10.0 mi SSE 4.6 mph - N/A   Mostly Cloudy
9:55 PM 37.4 °F 32.8 °F 30.2 °F 75% 30.13 in 10.0 mi SSE 5.8 mph - N/A   Scattered Clouds
10:15 PM 39.2 °F 35.0 °F 32.0 °F 75% 30.13 in 10.0 mi SSE 5.8 mph - N/A   Mostly Cloudy
10:35 PM 37.4 °F 32.1 °F 32.0 °F 81% 30.12 in 10.0 mi SE 6.9 mph - N/A   Overcast
10:55 PM 37.4 °F 32.1 °F 32.0 °F 81% 30.11 in 10.0 mi SSE 6.9 mph - N/A   Overcast
11:15 PM 39.2 °F 35.0 °F 32.0 °F 75% 30.11 in 10.0 mi SSE 5.8 mph - N/A   Overcast
11:35 PM 39.2 °F 34.2 °F 32.0 °F 75% 30.10 in 10.0 mi SSE 6.9 mph - N/A   Overcast
11:55 PM 39.2 °F 35.0 °F 32.0 °F 75% 30.10 in 10.0 mi SSE 5.8 mph - N/A Rain Light Rain